When you browse on this site, cookies collect data to enhance your experience and personalize the content and advertising you see.
Visit our Privacy Policy to learn more. By continuing to use the site, you agree to this use of cookies and data.
  • In Spain
  • List of Countries
  • For 7 days
  • Water Temperature
  • Weather Map
  • Weather Widgets
  • user-avatar
    Login

    Hourly Weather Linares

    Today, 20 January, Monday

    Time Temperature Precipitation Wind Pressure Humidity
    00:00 +15°C° 0 mm 0 mps 744 mmHg 72%
    01:00 +15°C° 0 mm 0 mps 744 mmHg 74%
    02:00 +14°C° 0 mm 0 mps 744 mmHg 76%
    03:00 +14°C° 0 mm 0 mps 744 mmHg 77%
    04:00 +13°C° 0 mm 0 mps 744 mmHg 79%
    05:00 +16°C° 0 mm 1 mps 744 mmHg 71%
    06:00 +19°C° 0 mm 1 mps 745 mmHg 63%
    07:00 +22°C° 0 mm 1 mps 745 mmHg 56%
    08:00 +25°C° 0 mm 1 mps 745 mmHg 46%
    09:00 +28°C° 0 mm 1 mps 745 mmHg 36%
    10:00 +32°C° 0 mm 1 mps 745 mmHg 26%
    11:00 +35°C° 0 mm 2 mps 745 mmHg 21%
    12:00 +37°C° 0 mm 2 mps 745 mmHg 16%
    13:00 +40°C° 0 mm 2 mps 745 mmHg 11%
    14:00 +40°C° 0 mm 2 mps 745 mmHg 10%
    15:00 +40°C° 0 mm 3 mps 745 mmHg 9%
    16:00 +42°C° 0 mm 3 mps 745 mmHg 8%
    17:00 +37°C° 0 mm 2 mps 745 mmHg 13%
    18:00 +31°C° 0 mm 2 mps 745 mmHg 19%
    19:00 +27°C° 0 mm 2 mps 746 mmHg 24%
    20:00 +24°C° 0 mm 1 mps 746 mmHg 29%
    21:00 +22°C° 0 mm 1 mps 746 mmHg 34%
    22:00 +19°C° 0 mm 1 mps 746 mmHg 39%
    23:00 +18°C° 0 mm 1 mps 745 mmHg 41%

    Tomorrow, 21 January, Tuesday

    Time Temperature Precipitation Wind Pressure Humidity
    00:00 +15°C° 0 mm 0 mps 745 mmHg 44%
    01:00 +14°C° 0 mm 0 mps 745 mmHg 46%
    02:00 +14°C° 0 mm 0 mps 745 mmHg 49%
    03:00 +13°C° 0 mm 0 mps 744 mmHg 51%
    04:00 +12°C° 0 mm 0 mps 744 mmHg 54%
    05:00 +16°C° 0 mm 1 mps 745 mmHg 49%
    06:00 +19°C° 0 mm 1 mps 745 mmHg 44%
    07:00 +22°C° 0 mm 1 mps 745 mmHg 40%
    08:00 +26°C° 0 mm 2 mps 745 mmHg 32%
    09:00 +30°C° 0 mm 2 mps 744 mmHg 25%
    10:00 +34°C° 0 mm 3 mps 744 mmHg 17%
    11:00 +37°C° 0 mm 3 mps 744 mmHg 14%
    12:00 +40°C° 0 mm 3 mps 743 mmHg 11%
    13:00 +44°C° 0 mm 4 mps 743 mmHg 8%
    14:00 +44°C° 0 mm 4 mps 743 mmHg 7%
    15:00 +44°C° 0 mm 4 mps 743 mmHg 6%
    16:00 +45°C° 0 mm 4 mps 743 mmHg 6%
    17:00 +41°C° 0 mm 4 mps 743 mmHg 10%
    18:00 +36°C° 0 mm 3 mps 743 mmHg 14%
    19:00 +31°C° 0 mm 3 mps 743 mmHg 18%
    20:00 +28°C° 0 mm 2 mps 744 mmHg 23%
    21:00 +25°C° 0 mm 2 mps 744 mmHg 29%
    22:00 +22°C° 0 mm 1 mps 744 mmHg 34%
    23:00 +21°C° 0 mm 1 mps 744 mmHg 39%

    Day after tomorrow, 22 January, Wednesday

    Time Temperature Precipitation Wind Pressure Humidity
    00:00 +20°C° 0 mm 1 mps 743 mmHg 44%
    01:00 +19°C° 0 mm 1 mps 743 mmHg 48%
    02:00 +18°C° 0 mm 1 mps 743 mmHg 54%
    03:00 +16°C° 0 mm 1 mps 743 mmHg 59%
    04:00 +15°C° 0 mm 1 mps 743 mmHg 64%
    05:00 +18°C° 0 mm 1 mps 743 mmHg 58%
    06:00 +20°C° 0 mm 1 mps 743 mmHg 52%
    07:00 +22°C° 0 mm 1 mps 744 mmHg 46%
    08:00 +26°C° 0 mm 1 mps 744 mmHg 39%
    09:00 +29°C° 0 mm 1 mps 744 mmHg 31%
    10:00 +34°C° 0 mm 2 mps 744 mmHg 23%
    11:00 +36°C° 0 mm 2 mps 744 mmHg 20%
    12:00 +39°C° 0 mm 2 mps 744 mmHg 17%
    13:00 +41°C° 0 mm 2 mps 744 mmHg 13%
    14:00 +40°C° 0 mm 3 mps 744 mmHg 15%
    15:00 +40°C° 0 mm 4 mps 744 mmHg 18%
    16:00 +39°C° 0 mm 5 mps 743 mmHg 20%
    17:00 +34°C° 0 mm 4 mps 744 mmHg 28%
    18:00 +29°C° 0 mm 3 mps 744 mmHg 36%
    19:00 +25°C° 0 mm 2 mps 744 mmHg 43%
    20:00 +23°C° 0 mm 1 mps 744 mmHg 53%
    21:00 +20°C° 0 mm 1 mps 745 mmHg 64%
    22:00 +16°C° 0 mm 1 mps 745 mmHg 74%
    23:00 +14°C° 0 mm 0 mps 745 mmHg 78%

    23 January, Thursday

    Time Temperature Precipitation Wind Pressure Humidity
    00:00 +14°C° 0 mm 0 mps 745 mmHg 82%
    01:00 +13°C° 0 mm 0 mps 745 mmHg 86%
    02:00 +13°C° 0 mm 1 mps 745 mmHg 87%
    03:00 +13°C° 0 mm 1 mps 745 mmHg 89%
    04:00 +13°C° 0 mm 1 mps 746 mmHg 90%
    05:00 +14°C° 0 mm 1 mps 746 mmHg 82%
    06:00 +16°C° 0 mm 1 mps 747 mmHg 74%
    07:00 +19°C° 0 mm 1 mps 747 mmHg 66%
    08:00 +23°C° 0 mm 1 mps 747 mmHg 55%
    09:00 +26°C° 0 mm 1 mps 747 mmHg 44%
    10:00 +30°C° 0 mm 1 mps 747 mmHg 33%
    11:00 +32°C° 0 mm 1 mps 747 mmHg 29%
    12:00 +35°C° 0 mm 2 mps 747 mmHg 25%
    13:00 +37°C° 0 mm 2 mps 746 mmHg 21%
    14:00 +37°C° 0 mm 2 mps 746 mmHg 21%
    15:00 +37°C° 0 mm 3 mps 746 mmHg 20%
    16:00 +37°C° 0 mm 4 mps 746 mmHg 20%
    17:00 +33°C° 0 mm 3 mps 746 mmHg 29%
    18:00 +28°C° 0 mm 2 mps 747 mmHg 39%
    19:00 +24°C° 0 mm 2 mps 747 mmHg 48%
    20:00 +22°C° 0 mm 1 mps 747 mmHg 57%
    21:00 +20°C° 0 mm 1 mps 747 mmHg 65%
    22:00 +16°C° 0 mm 0 mps 747 mmHg 74%
    23:00 +15°C° 0 mm 0 mps 747 mmHg 76%

    24 January, Friday

    Time Temperature Precipitation Wind Pressure Humidity
    00:00 +15°C° 0 mm 1 mps 747 mmHg 79%
    01:00 +14°C° 0 mm 1 mps 747 mmHg 81%
    02:00 +14°C° 0 mm 1 mps 747 mmHg 83%
    03:00 +13°C° 0 mm 1 mps 747 mmHg 85%
    04:00 +13°C° 0 mm 1 mps 747 mmHg 86%
    05:00 +15°C° 0 mm 1 mps 747 mmHg 77%
    06:00 +18°C° 0 mm 1 mps 747 mmHg 69%
    07:00 +20°C° 0 mm 1 mps 747 mmHg 60%
    08:00 +23°C° 0 mm 1 mps 747 mmHg 49%
    09:00 +27°C° 0 mm 2 mps 747 mmHg 39%
    10:00 +30°C° 0 mm 2 mps 747 mmHg 29%
    11:00 +33°C° 0 mm 3 mps 747 mmHg 23%
    12:00 +36°C° 0 mm 3 mps 746 mmHg 17%
    13:00 +38°C° 0 mm 4 mps 746 mmHg 11%
    14:00 +38°C° 0 mm 4 mps 746 mmHg 10%
    15:00 +39°C° 0 mm 5 mps 746 mmHg 9%
    16:00 +40°C° 0 mm 5 mps 746 mmHg 7%
    17:00 +36°C° 0 mm 5 mps 746 mmHg 10%
    18:00 +33°C° 0 mm 4 mps 747 mmHg 13%
    19:00 +29°C° 0 mm 4 mps 747 mmHg 16%
    20:00 +26°C° 0 mm 3 mps 747 mmHg 19%
    21:00 +22°C° 0 mm 3 mps 747 mmHg 22%
    22:00 +19°C° 0 mm 2 mps 748 mmHg 26%
    23:00 +18°C° 0 mm 2 mps 747 mmHg 29%

    25 January, Saturday

    Time Temperature Precipitation Wind Pressure Humidity
    00:00 +17°C° 0 mm 2 mps 747 mmHg 32%
    01:00 +16°C° 0 mm 2 mps 747 mmHg 35%
    02:00 +15°C° 0 mm 2 mps 747 mmHg 39%
    03:00 +13°C° 0 mm 2 mps 747 mmHg 43%
    04:00 +12°C° 0 mm 1 mps 747 mmHg 47%
    05:00 +14°C° 0 mm 1 mps 747 mmHg 44%
    06:00 +16°C° 0 mm 2 mps 747 mmHg 41%
    07:00 +18°C° 0 mm 2 mps 748 mmHg 37%
    08:00 +23°C° 0 mm 2 mps 748 mmHg 30%
    09:00 +27°C° 0 mm 2 mps 747 mmHg 23%
    10:00 +31°C° 0 mm 2 mps 747 mmHg 17%
    11:00 +34°C° 0 mm 3 mps 747 mmHg 15%
    12:00 +36°C° 0 mm 3 mps 747 mmHg 13%
    13:00 +38°C° 0 mm 3 mps 747 mmHg 11%
    14:00 +38°C° 0 mm 4 mps 747 mmHg 12%
    15:00 +38°C° 0 mm 4 mps 747 mmHg 12%
    16:00 +39°C° 0 mm 5 mps 747 mmHg 13%
    17:00 +36°C° 0 mm 5 mps 747 mmHg 18%
    18:00 +33°C° 0 mm 5 mps 747 mmHg 24%
    19:00 +29°C° 0 mm 4 mps 748 mmHg 29%
    20:00 +27°C° 0 mm 4 mps 748 mmHg 37%
    21:00 +24°C° 0 mm 3 mps 748 mmHg 45%
    22:00 +20°C° 0 mm 2 mps 748 mmHg 53%
    23:00 +19°C° 0 mm 2 mps 748 mmHg 58%
    Show more